0WD RJBT-RJOS

Flight info

Callsign 0WD
Flight time 0h 39m
Altitude 15000
Route RJBT/01 YME3 YME G597 KANNA DCT ASANO DCT RJOS/29
Aircraft PC12/L-V/N

Departure

Time 2026-04-23 00:45
Airport Konotori Tajima Airport (RJBT)

Arrival

Time 2026-04-23 01:24
Airport Tokushima Awaodori Airport / JMSDF Tokushima Air Base (RJOS)
Time Latitude Longitude Altitude Speed Heading
2026-04-23 00:35 35.51586 134.78867 542 ft 0 kts 240°
2026-04-23 00:37 35.51560 134.78859 541 ft 10 kts 114°
2026-04-23 00:37 35.51585 134.78865 542 ft 6 kts 263°
2026-04-23 00:37 35.51570 134.78874 541 ft 6 kts 86°
2026-04-23 00:38 35.51614 134.78883 543 ft 8 kts 333°
2026-04-23 00:38 35.51622 134.78877 543 ft 0 kts 328°
2026-04-23 00:40 35.51623 134.78877 544 ft 0 kts 327°
2026-04-23 00:40 35.51640 134.78857 546 ft 8 kts 301°
2026-04-23 00:41 35.51642 134.78769 552 ft 15 kts 258°
2026-04-23 00:41 35.51554 134.78723 552 ft 20 kts 169°
2026-04-23 00:41 35.51403 134.78716 545 ft 27 kts 186°
2026-04-23 00:41 35.51218 134.78699 536 ft 32 kts 183°
2026-04-23 00:42 35.51020 134.78687 534 ft 32 kts 183°
2026-04-23 00:42 35.50824 134.78674 532 ft 29 kts 182°
2026-04-23 00:42 35.50718 134.78682 527 ft 11 kts 241°
2026-04-23 00:42 35.50754 134.78667 530 ft 10 kts
2026-04-23 00:43 35.50773 134.78670 530 ft 0 kts
2026-04-23 00:44 35.50793 134.78671 531 ft 10 kts
2026-04-23 00:45 35.51071 134.78693 534 ft 81 kts
2026-04-23 00:45 35.51651 134.78731 773 ft 101 kts
2026-04-23 00:45 35.52290 134.78755 1133 ft 110 kts
2026-04-23 00:45 35.53025 134.78796 1474 ft 128 kts
2026-04-23 00:46 35.53861 134.78845 1841 ft 143 kts
2026-04-23 00:46 35.54729 134.79013 2179 ft 150 kts 31°
2026-04-23 00:46 35.55325 134.79863 2513 ft 156 kts 71°
2026-04-23 00:46 35.55259 134.81029 2840 ft 169 kts 111°
2026-04-23 00:47 35.54539 134.81988 3181 ft 182 kts 136°
2026-04-23 00:47 35.53630 134.82750 3509 ft 187 kts 141°
2026-04-23 00:47 35.52668 134.83496 3841 ft 190 kts 142°
2026-04-23 00:47 35.51664 134.84280 4185 ft 192 kts 142°
2026-04-23 00:48 35.50668 134.85077 4525 ft 193 kts 142°
2026-04-23 00:48 35.49646 134.85899 4874 ft 193 kts 142°
2026-04-23 00:48 35.48650 134.86713 5213 ft 193 kts 142°
2026-04-23 00:48 35.47618 134.87575 5562 ft 194 kts 142°
2026-04-23 00:49 35.46601 134.88438 5908 ft 197 kts 141°
2026-04-23 00:49 35.45580 134.89320 6257 ft 198 kts 142°
2026-04-23 00:49 35.44579 134.90205 6598 ft 199 kts 142°
2026-04-23 00:49 35.43596 134.91089 6928 ft 199 kts 142°
2026-04-23 00:50 35.42617 134.91995 7257 ft 199 kts 142°
2026-04-23 00:50 35.41633 134.92931 7579 ft 200 kts 142°
2026-04-23 00:50 35.40656 134.93881 7892 ft 200 kts 142°
2026-04-23 00:50 35.39724 134.94820 8218 ft 199 kts 143°
2026-04-23 00:51 35.38808 134.95756 8538 ft 199 kts 142°
2026-04-23 00:51 35.37882 134.96736 8869 ft 199 kts 142°
2026-04-23 00:51 35.36982 134.97710 9189 ft 198 kts 142°
2026-04-23 00:51 35.36056 134.98729 9516 ft 198 kts 142°
2026-04-23 00:52 35.35106 134.99797 9875 ft 197 kts 141°
2026-04-23 00:52 35.34202 135.00844 10185 ft 197 kts 143°
2026-04-23 00:52 35.33311 135.01891 10507 ft 196 kts 141°
2026-04-23 00:52 35.32454 135.02901 10843 ft 196 kts 142°
2026-04-23 00:53 35.31949 135.03502 11002 ft 195 kts 142°
2026-04-23 00:53 35.31256 135.04340 11258 ft 195 kts 141°
2026-04-23 00:53 35.30347 135.05455 11600 ft 194 kts 142°
2026-04-23 00:53 35.29488 135.06514 11933 ft 193 kts 140°
2026-04-23 00:54 35.28623 135.07585 12252 ft 191 kts 140°
2026-04-23 00:54 35.27774 135.08658 12593 ft 190 kts 141°
2026-04-23 00:54 35.26912 135.09753 12903 ft 189 kts 141°
2026-04-23 00:54 35.26089 135.10805 13214 ft 187 kts 141°
2026-04-23 00:55 35.25254 135.11881 13441 ft 190 kts 142°
2026-04-23 00:55 35.24393 135.12990 13647 ft 193 kts 141°
2026-04-23 00:55 35.23537 135.14113 13942 ft 191 kts 140°
2026-04-23 00:55 35.22655 135.15253 14150 ft 193 kts 142°
2026-04-23 00:56 35.21800 135.16367 14339 ft 194 kts 141°
2026-04-23 00:56 35.20939 135.17490 14499 ft 196 kts 141°
2026-04-23 00:56 35.20083 135.18616 14649 ft 197 kts 142°
2026-04-23 00:56 35.19266 135.19707 14833 ft 195 kts 141°
2026-04-23 00:57 35.18423 135.20836 14902 ft 198 kts 144°
2026-04-23 00:57 35.17432 135.21642 14904 ft 179 kts 177°
2026-04-23 00:57 35.16315 135.21692 14933 ft 174 kts 191°
2026-04-23 00:57 35.15205 135.21498 14930 ft 174 kts 197°
2026-04-23 00:58 35.14121 135.21227 14959 ft 175 kts 199°
2026-04-23 00:58 35.13014 135.20905 14894 ft 175 kts 199°
2026-04-23 00:58 35.11929 135.20560 14908 ft 171 kts 200°
2026-04-23 00:58 35.10812 135.20183 14931 ft 180 kts 200°
2026-04-23 00:59 35.09632 135.19783 14919 ft 189 kts 198°
2026-04-23 00:59 35.08431 135.19360 14929 ft 194 kts 200°
2026-04-23 00:59 35.07227 135.18930 14909 ft 198 kts 201°
2026-04-23 00:59 35.05983 135.18480 14929 ft 199 kts 200°
2026-04-23 01:00 35.04655 135.17999 14921 ft 200 kts 201°
2026-04-23 01:00 35.03405 135.17551 14904 ft 199 kts 200°
2026-04-23 01:00 35.02181 135.17116 14908 ft 197 kts 200°
2026-04-23 01:00 35.00964 135.16672 14918 ft 196 kts 201°
2026-04-23 01:01 34.99762 135.16237 14914 ft 194 kts 201°
2026-04-23 01:01 34.98561 135.15805 14919 ft 193 kts 201°
2026-04-23 01:01 34.97356 135.15373 14920 ft 193 kts 200°
2026-04-23 01:01 34.96159 135.14941 14921 ft 192 kts 200°
2026-04-23 01:02 34.94949 135.14511 14914 ft 190 kts 200°
2026-04-23 01:02 34.93752 135.14084 14921 ft 189 kts 201°
2026-04-23 01:02 34.92568 135.13661 14917 ft 186 kts 201°
2026-04-23 01:02 34.91432 135.13260 14920 ft 184 kts 199°
2026-04-23 01:03 34.90306 135.12869 14905 ft 180 kts 201°
2026-04-23 01:03 34.89196 135.12495 14925 ft 176 kts 201°
2026-04-23 01:03 34.88105 135.12134 14922 ft 173 kts 200°
2026-04-23 01:03 34.87048 135.11784 14929 ft 168 kts 200°
2026-04-23 01:04 34.86014 135.11455 14923 ft 163 kts 200°
2026-04-23 01:04 34.85033 135.11144 14906 ft 158 kts 200°
2026-04-23 01:04 34.83152 135.10577 14911 ft 143 kts 199°
2026-04-23 01:05 34.82283 135.10327 14945 ft 140 kts 200°
2026-04-23 01:05 34.81350 135.10051 14951 ft 157 kts 199°
2026-04-23 01:05 34.80322 135.09721 14921 ft 170 kts 200°
2026-04-23 01:05 34.79225 135.09354 14921 ft 178 kts 201°
2026-04-23 01:06 34.78110 135.08971 14914 ft 184 kts 200°
2026-04-23 01:06 34.76967 135.08571 14912 ft 188 kts 202°
2026-04-23 01:06 34.75794 135.08164 14936 ft 190 kts 201°
2026-04-23 01:06 34.74610 135.07752 14933 ft 192 kts 200°
2026-04-23 01:07 34.73429 135.07341 14905 ft 191 kts 200°
2026-04-23 01:07 34.72229 135.06923 14928 ft 189 kts 200°
2026-04-23 01:07 34.71063 135.06516 14914 ft 188 kts 202°
2026-04-23 01:07 34.69922 135.06116 14900 ft 184 kts 200°
2026-04-23 01:08 34.68778 135.05724 14914 ft 180 kts 200°
2026-04-23 01:08 34.67667 135.05345 14978 ft 177 kts 201°
2026-04-23 01:08 34.66530 135.04952 14983 ft 186 kts 201°
2026-04-23 01:08 34.65330 135.04532 14861 ft 199 kts 200°
2026-04-23 01:09 34.64041 135.04054 14602 ft 213 kts 201°
2026-04-23 01:09 34.62703 135.03542 14341 ft 225 kts 201°
2026-04-23 01:09 34.61311 135.03006 14087 ft 233 kts 202°
2026-04-23 01:09 34.59878 135.02437 13829 ft 241 kts 200°
2026-04-23 01:10 34.58394 135.01836 13566 ft 248 kts 201°
2026-04-23 01:10 34.56840 135.01199 13297 ft 251 kts 202°
2026-04-23 01:10 34.55351 135.00574 12966 ft 244 kts 201°
2026-04-23 01:10 34.53884 134.99965 12633 ft 237 kts 201°
2026-04-23 01:11 34.52432 134.99371 12294 ft 234 kts 200°
2026-04-23 01:11 34.50949 134.98770 11940 ft 232 kts 200°
2026-04-23 01:11 34.49443 134.98157 11591 ft 230 kts 200°
2026-04-23 01:11 34.47959 134.97551 11228 ft 229 kts 200°
2026-04-23 01:12 34.46479 134.96947 10878 ft 228 kts 200°
2026-04-23 01:12 34.44997 134.96336 10520 ft 227 kts 199°
2026-04-23 01:12 34.43531 134.95735 10168 ft 227 kts 199°
2026-04-23 01:12 34.42139 134.95166 9830 ft 222 kts 198°
2026-04-23 01:13 34.40798 134.94611 9517 ft 218 kts 198°
2026-04-23 01:13 34.39482 134.94072 9204 ft 215 kts 198°
2026-04-23 01:13 34.38187 134.93543 8878 ft 213 kts 197°
2026-04-23 01:13 34.36894 134.93025 8562 ft 212 kts 197°
2026-04-23 01:14 34.35571 134.92500 8260 ft 212 kts 197°
2026-04-23 01:14 34.34280 134.91988 7968 ft 212 kts 197°
2026-04-23 01:14 34.32967 134.91460 7663 ft 212 kts 196°
2026-04-23 01:14 34.31670 134.90939 7358 ft 209 kts 197°
2026-04-23 01:15 34.30376 134.90414 7050 ft 204 kts 196°
2026-04-23 01:15 34.29107 134.89902 6761 ft 199 kts 196°
2026-04-23 01:15 34.27905 134.89410 6489 ft 196 kts 195°
2026-04-23 01:15 34.26673 134.88916 6200 ft 194 kts 195°
2026-04-23 01:16 34.25488 134.88441 5931 ft 193 kts 194°
2026-04-23 01:16 34.24294 134.87964 5669 ft 192 kts 194°
2026-04-23 01:16 34.23071 134.87477 5402 ft 191 kts 194°
2026-04-23 01:16 34.21849 134.86990 5134 ft 191 kts 193°
2026-04-23 01:17 34.20687 134.86530 4884 ft 192 kts 194°
2026-04-23 01:17 34.19506 134.86369 4642 ft 186 kts 168°
2026-04-23 01:17 34.18292 134.86459 4382 ft 188 kts 178°
2026-04-23 01:17 34.17064 134.86296 4119 ft 192 kts 185°
2026-04-23 01:18 34.15842 134.85976 3862 ft 193 kts 188°
2026-04-23 01:18 34.14594 134.85577 3594 ft 195 kts 190°
2026-04-23 01:18 34.13382 134.85155 3332 ft 190 kts 190°
2026-04-23 01:18 34.12194 134.84738 3070 ft 186 kts 190°
2026-04-23 01:19 34.11023 134.84325 2802 ft 183 kts 190°
2026-04-23 01:19 34.09974 134.83702 2540 ft 186 kts 222°
2026-04-23 01:19 34.09477 134.82434 2291 ft 183 kts 260°
2026-04-23 01:19 34.09504 134.81073 2044 ft 177 kts 278°
2026-04-23 01:20 34.09705 134.79768 1949 ft 160 kts 283°
2026-04-23 01:20 34.09912 134.78632 1936 ft 141 kts 284°
2026-04-23 01:20 34.10105 134.77563 1947 ft 148 kts 282°
2026-04-23 01:20 34.10327 134.76379 1958 ft 162 kts 284°
2026-04-23 01:21 34.10572 134.75140 1956 ft 166 kts 284°
2026-04-23 01:21 34.10812 134.73883 1950 ft 169 kts 284°
2026-04-23 01:21 34.11057 134.72572 1750 ft 163 kts 284°
2026-04-23 01:21 34.11278 134.71382 1564 ft 155 kts 284°
2026-04-23 01:22 34.11494 134.70219 1378 ft 148 kts 285°
2026-04-23 01:22 34.11700 134.69113 1208 ft 138 kts 285°
2026-04-23 01:22 34.11879 134.68144 1050 ft 125 kts 285°
2026-04-23 01:22 34.12061 134.67181 896 ft 131 kts 285°
2026-04-23 01:23 34.12253 134.66164 721 ft 130 kts 286°
2026-04-23 01:23 34.12429 134.65205 565 ft 110 kts 287°
2026-04-23 01:23 34.12564 134.64458 426 ft 89 kts 288°
2026-04-23 01:23 34.12694 134.63766 307 ft 93 kts 282°
2026-04-23 01:24 34.12820 134.63055 206 ft 88 kts 288°
2026-04-23 01:24 34.12949 134.62404 63 ft 89 kts 288°
2026-04-23 01:24 34.13068 134.61772 8 ft 72 kts 287°
2026-04-23 01:24 34.13149 134.61415 13 ft 36 kts 282°
2026-04-23 01:25 34.13208 134.61206 11 ft 20 kts 341°
2026-04-23 01:25 34.13312 134.61204 11 ft 4 kts 282°
2026-04-23 01:25 34.13331 134.61188 10 ft 5 kts 36°
2026-04-23 01:25 34.13338 134.61250 12 ft 11 kts 96°
2026-04-23 01:26 34.13319 134.61348 13 ft 14 kts 102°
2026-04-23 01:26 34.13296 134.61464 13 ft 16 kts 106°
2026-04-23 01:26 34.13294 134.61594 10 ft 18 kts 51°
2026-04-23 01:26 34.13368 134.61615 10 ft 12 kts 15°
2026-04-23 01:27 34.13401 134.61636 10 ft 2 kts 131°
2026-04-23 01:27 34.13399 134.61639 10 ft 0 kts 129°